Location: Gleizolles
(44.4833°N, 6.7667°E)
Time: 01:31:45
(UTC+00:00)

A-11 Canister half - Pass Details

Date: 02 July 2024
Orbit: 1523 x 1684 km, 47.3° (Epoch: 24 July)

Event Time Altitude Azimuth Distance (km) Brightness Sun altitude
Rises 07:56:36 0° 199° (SSW) 4,838 11.5 40.5°
Reaches altitude 10° 08:00:14 10° 189° (S) 3,830 11.2 41.1°
Maximum altitude 08:08:16 30° 133° (SE) 2,531 11.4 42.5°
Drops below altitude 10° 08:16:05 10° 77° (ENE) 3,740 12.0 43.9°
Sets 08:19:33 0° 67° (ENE) 4,708 12.1 44.5°
